This demonstration page uses our WeatherBlox Daily Observations layout. Learn more.

Left ArrowRight Arrow

Hourly Observations for March 15, 2020

Temp ( °F °C ) Dew Point ( °F °C ) Humidity (%) Winds ( mph kmh ) Pressure ( in mb ) Visibility ( mi km ) Precip ( " mm )
12:53 am 00:53 Partly Cloudy 44 6.7 35 1.7 71 71 S 7 11 29.84 1011 10 16 0.00 0.00
1:53 am 01:53 Mostly Cloudy 44 6.7 36 2.2 73 73 Calm 29.82 1010 10 16 0.00 0.00
2:53 am 02:53 Cloudy 43 6.1 36 2.2 76 76 Calm 29.83 1010 10 16 0.00 0.00
3:02 am 03:02 Cloudy 44 6.7 37 2.8 76 76 Calm 29.84 1011 10 16 0.00 0.00
3:53 am 03:53 Cloudy 45 7.2 38 3.3 77 77 Calm 29.80 1009 10 16 0.00 0.00
4:53 am 04:53 Cloudy 44 6.7 37 2.8 76 76 ENE 5 7 29.80 1009 10 16 0.00 0.00
5:53 am 05:53 Cloudy with Light Rain 44 6.7 37 2.8 76 76 SE 3 6 29.79 1009 10 16 0.00 0.00
6:33 am 06:33 Cloudy with Light Rain 44 6.7 38 3.3 79 79 S 5 7 29.80 1009 10 16 0.02 0.51
6:53 am 06:53 Cloudy with Light Rain 44 6.7 39 3.9 83 83 SW 6 9 29.80 1009 7 11 0.03 0.76
7:30 am 07:30 Cloudy with Light Rain 42 5.6 39 3.9 89 89 WNW 6 9 29.82 1010 10 16 0.02 0.51
7:45 am 07:45 Cloudy 41 5 38 3.3 89 89 WNW 3 6 29.82 1010 10 16 0.02 0.51
7:53 am 07:53 Cloudy 41 5 38 3.3 89 89 VRB 3 6 29.80 1009 10 16 0.02 0.51
8:00 am 08:00 Cloudy with Light Rain 41 5 38 3.3 89 89 Calm 29.83 1010 10 16 0.00 0.00
8:53 am 08:53 Cloudy with Light Rain 42 5.6 39 3.9 89 89 SSW 3 6 29.82 1010 5 8 0.06 1.52
9:29 am 09:29 Cloudy 43 6.1 40 4.4 89 89 W 8 13 29.87 1011 10 16 0.01 0.25
9:42 am 09:42 Cloudy with Light Rain 42 5.6 39 3.9 89 89 W 7 11 29.87 1011 8 13 0.01 0.25
9:53 am 09:53 Cloudy with Light Rain 43 6.1 39 3.9 86 86 W 6 9 29.85 1011 9 14 0.01 0.25
10:29 am 10:29 Cloudy with Light Rain 43 6.1 40 4.4 89 89 WSW 5 7 29.89 1012 8 13 0.00 0.00
10:53 am 10:53 Cloudy with Light Rain 44 6.7 41 5 89 89 S 10 17 29.88 1012 6 10 0.01 0.25
11:53 am 11:53 Cloudy 45 7.2 40 4.4 83 83 SW 8 13 29.89 1012 10 16 0.03 0.76
12:53 pm 12:53 Mostly Cloudy 46 7.8 41 5 83 83 ESE 9 15 29.89 1012 10 16 0.00 0.00
1:53 pm 13:53 Mostly Cloudy 46 7.8 39 3.9 77 77 ENE 14 22 29.89 1012 10 16 0.00 0.00
2:53 pm 14:53 Mostly Cloudy 47 8.3 39 3.9 74 74 ENE 12 19 29.89 1012 10 16 0.00 0.00
3:53 pm 15:53 Partly Cloudy with Nearby Thunderstorms 51 10.6 37 2.8 59 59 SE 17 28 29.86 1011 10 16 0.00 0.00
4:34 pm 16:34 Cloudy with Thunderstorms 42 5.6 35 1.7 76 76 WNW 12 19 29.93 1013 10 16 0.00 0.00
4:44 pm 16:44 Cloudy with Strong Thunderstorms 40 4.4 35 1.7 83 83 NW 7 11 29.93 1014 2 2 0.02 0.51
4:48 pm 16:48 Cloudy with Nearby Thunderstorms 39 4 34 1 81 81 N 7 11 29.92 1013 10 16 0.09 2.29
4:53 pm 16:53 Cloudy with Light Rain 39 3.9 35 1.7 86 86 N 3 6 29.91 1013 10 16 0.09 2.29
5:53 pm 17:53 Mostly Cloudy 43 6.1 38 3.3 82 82 N 10 17 29.92 1013 10 16 0.00 0.00
6:53 pm 18:53 Mostly Sunny 43 6.1 37 2.8 80 80 NNE 12 19 29.93 1013 10 16 0.00 0.00
7:53 pm 19:53 Clear 41 5 36 2.2 82 82 N 7 11 29.95 1014 10 16 0.00 0.00
8:53 pm 20:53 Mostly Clear 40 4.4 35 1.7 83 83 NNW 6 9 29.98 1015 10 16 0.00 0.00
9:53 pm 21:53 Partly Cloudy 40 4.4 34 1.1 79 79 NNW 6 9 29.98 1015 10 16 0.00 0.00
10:53 pm 22:53 Cloudy 40 4.4 34 1.1 79 79 Calm 29.99 1016 10 16 0.00 0.00
11:53 pm 23:53 Clear 40 4.4 34 1.1 79 79 Calm 29.99 1016 10 16 0.00 0.00

Powered by AerisWeather